Flag for Canada Weather past 2 weeks in Kitchener, Ontario, Canada

Now
52 °F

Sunny.


Feels Like: 49 °F
Forecast: 28 / 68 °F
Wind: 8 mph from Southwest

Location: Waterloo Well

Current Time: May 23, 2015 at 9:57:56 AM

Latest Report: May 23, 2015 at 9:00 AM


Visibility: 9 mi

Pressure: 30.42 "Hg

Humidity: 28%

Dew point: 19 °F

Location of KitchenerLocation

Historic Weather in Kitchener — Graph

°F

Kitchener temperature yesterday

Maximum temperature yesterday: 55 °F (at 12:00 AM)
Minimum temperature yesterday: 37 °F (at 11:00 PM)
Average temperature yesterday: 48 °F

Past Weeks' High & Low Weather Summary

 TemperatureHumidityPressure
High86 °F (May 8, 2:00 PM)100% (May 10, 5:46 AM)30.50 "Hg (May 10, 5:46 AM)
Low27 °F (May 23, 6:00 AM)22% (May 22, 7:00 PM)29.75 "Hg (May 12, 2:01 AM)
Average59 °F67%30.07 "Hg
* Reported May 8 8:00 AM — May 23 8:00 AM, Kitchener, Weather by CustomWeather, © 2015

Note: Actual official high and low records may vary slightly from our data, if they occured in-between our weather recording intervals... More about our weather records

Advertising

Kitchener weather history for previous 24 hours

 ConditionsComfort  
Time TempWeatherWind HumidityBarometerVisibility
8:00 AM
Sat, May 23
41 °FSunny.2 mph66%30.42 "Hg9 mi
7:00 AM32 °FSunny.3 mph87%30.40 "Hg9 mi
6:00 AM27 °FClear.No wind93%30.38 "Hg9 mi
5:00 AM28 °FClear.2 mph93%30.38 "Hg9 mi
4:00 AM32 °FClear.3 mph93%30.37 "Hg9 mi
3:00 AM32 °FClear.3 mph87%30.36 "Hg9 mi
2:00 AM30 °FClear.3 mph80%30.35 "Hg9 mi
1:00 AM34 °FClear.No wind70%30.34 "Hg9 mi
12:00 AM36 °FClear.2 mph65%30.32 "Hg9 mi
11:00 PM
Fri, May 22
37 °FClear.6 mph60%30.32 "Hg9 mi
10:00 PM39 °FClear.7 mph48%30.31 "Hg9 mi
9:00 PM45 °FSunny.12 mph31%30.27 "Hg9 mi
8:00 PM48 °FSunny.14 mph25%30.25 "Hg9 mi
7:00 PM52 °FSunny.18 mph22%30.23 "Hg9 mi
6:00 PM52 °FSunny.18 mph24%30.23 "Hg9 mi
5:00 PM54 °FSunny.16 mph28%30.21 "Hg9 mi
4:00 PM54 °FSunny.23 mph30%30.19 "Hg9 mi
3:00 PM54 °FSunny.20 mph26%30.15 "Hg9 mi
2:00 PM55 °FSunny.18 mph26%30.12 "Hg9 mi
1:00 PM55 °FPartly sunny.21 mph38%30.10 "Hg9 mi
12:00 PM55 °FScattered clouds.16 mph44%30.09 "Hg9 mi
11:00 AM55 °FPassing clouds.10 mph47%30.07 "Hg9 mi
10:00 AM54 °FSunny.6 mph51%30.06 "Hg9 mi
9:00 AM48 °FSunny.5 mph62%30.05 "Hg9 mi
Weather by CustomWeather, © 2015

See weather overviewHow to use our weather pages